owner,sensor,date,latitude,longitude,vertical_datum,direction_of_sea_water_velocity,sea_water_speed,upward_sea_water_velocity,qcFlag 
TABS,ioos:station:wmo:42049:1,2017-09-01T00:00:00Z,28.3507,-96.0058,2.0,174.3822221,0.612943717,-99999.0,'11133222,11111222,99999999' 
TABS,ioos:station:wmo:42049:1,2017-09-01T00:30:00Z,28.3507,-96.0058,2.0,161.1566082,1.331352696,-99999.0,'11133222,11111222,99999999' 
TABS,ioos:station:wmo:42049:1,2017-09-01T01:00:00Z,28.3507,-96.0058,2.0,231.4964674,3.999624982,-99999.0,'11133222,11111222,99999999' 
TABS,ioos:station:wmo:42049:1,2017-09-01T01:30:00Z,28.3507,-96.0058,2.0,241.3226924,6.189167957,-99999.0,'11133222,11111222,99999999' 
TABS,ioos:station:wmo:42049:1,2017-09-01T02:00:00Z,28.3507,-96.0058,2.0,246.9560352,5.824774674,-99999.0,'11133222,11111222,99999999' 
TABS,ioos:station:wmo:42049:1,2017-09-01T02:30:00Z,28.3507,-96.0058,2.0,257.8732476,6.331271594,-99999.0,'11133222,11111222,99999999' 
TABS,ioos:station:wmo:42049:1,2017-09-01T03:00:00Z,28.3507,-96.0058,2.0,272.8370744,6.668170664,-99999.0,'11133222,11111222,99999999' 
TABS,ioos:station:wmo:42049:1,2017-09-01T03:30:00Z,28.3507,-96.0058,2.0,268.1927447,9.514730685,-99999.0,'11133222,11111222,99999999' 
TABS,ioos:station:wmo:42049:1,2017-09-01T04:00:00Z,28.3507,-96.0058,2.0,277.8261478,10.64917837,-99999.0,'11111222,11111222,99999999' 
TABS,ioos:station:wmo:42049:1,2017-09-01T04:30:00Z,28.3507,-96.0058,2.0,294.6800242,15.08821063,-99999.0,'11111222,11111222,99999999' 
TABS,ioos:station:wmo:42049:1,2017-09-01T05:00:00Z,28.3507,-96.0058,2.0,335.8957929,18.43772763,-99999.0,'11111222,11111222,99999999' 
TABS,ioos:station:wmo:42049:1,2017-09-01T05:30:00Z,28.3507,-96.0058,2.0,323.3862716,17.0181697,-99999.0,'11111222,11111222,99999999' 
TABS,ioos:station:wmo:42049:1,2017-09-01T06:00:00Z,28.3507,-96.0058,2.0,337.3640617,16.18692373,-99999.0,'11111222,11111222,99999999' 
TABS,ioos:station:wmo:42049:1,2017-09-01T06:30:00Z,28.3507,-96.0058,2.0,349.4056759,19.6347167,-99999.0,'11111222,11111222,99999999' 
TABS,ioos:station:wmo:42049:1,2017-09-01T07:00:00Z,28.3507,-96.0058,2.0,359.4857549,21.16085301,-99999.0,'11111222,11144222,99999999' 
TABS,ioos:station:wmo:42049:1,2017-09-01T07:30:00Z,28.3507,-96.0058,2.0,15.40825633,22.99654322,-99999.0,'11111222,11111222,99999999' 
TABS,ioos:station:wmo:42049:1,2017-09-01T08:00:00Z,28.3507,-96.0058,2.0,34.0858619,22.89302295,-99999.0,'11111222,11111222,99999999' 
TABS,ioos:station:wmo:42049:1,2017-09-01T08:30:00Z,28.3507,-96.0058,2.0,33.83165377,24.71474256,-99999.0,'11111222,11111222,99999999' 
TABS,ioos:station:wmo:42049:1,2017-09-01T09:00:00Z,28.3507,-96.0058,2.0,39.33187487,25.70172173,-99999.0,'11111222,11111222,99999999' 
TABS,ioos:station:wmo:42049:1,2017-09-01T09:30:00Z,28.3507,-96.0058,2.0,44.39893292,22.23973246,-99999.0,'11111222,11111222,99999999' 
TABS,ioos:station:wmo:42049:1,2017-09-01T10:00:00Z,28.3507,-96.0058,2.0,52.24649381,21.52656034,-99999.0,'11111222,11111222,99999999' 
TABS,ioos:station:wmo:42049:1,2017-09-01T10:30:00Z,28.3507,-96.0058,2.0,51.20060995,17.93817159,-99999.0,'11111222,11111222,99999999' 
TABS,ioos:station:wmo:42049:1,2017-09-01T11:00:00Z,28.3507,-96.0058,2.0,48.44024065,16.14405463,-99999.0,'11111222,11111222,99999999' 
TABS,ioos:station:wmo:42049:1,2017-09-01T11:30:00Z,28.3507,-96.0058,2.0,50.78693839,13.74549381,-99999.0,'11111222,11111222,99999999' 
TABS,ioos:station:wmo:42049:1,2017-09-01T12:00:00Z,28.3507,-96.0058,2.0,68.33580165,17.06545048,-99999.0,'11111222,11111222,99999999' 
TABS,ioos:station:wmo:42049:1,2017-09-01T12:30:00Z,28.3507,-96.0058,2.0,78.72003839,18.76243321,-99999.0,'11111222,11111222,99999999' 
TABS,ioos:station:wmo:42049:1,2017-09-01T13:00:00Z,28.3507,-96.0058,2.0,86.59281484,18.17212151,-99999.0,'11111222,11111222,99999999' 
TABS,ioos:station:wmo:42049:1,2017-09-01T13:30:00Z,28.3507,-96.0058,2.0,92.60558876,17.15773878,-99999.0,'11111222,11111222,99999999' 
TABS,ioos:station:wmo:42049:1,2017-09-01T14:00:00Z,28.3507,-96.0058,2.0,117.526621,24.51522996,-99999.0,'11111222,11111222,99999999' 
TABS,ioos:station:wmo:42049:1,2017-09-01T14:30:00Z,28.3507,-96.0058,2.0,124.7271127,23.75060631,-99999.0,'11111222,11111222,99999999' 
TABS,ioos:station:wmo:42049:1,2017-09-01T15:00:00Z,28.3507,-96.0058,2.0,135.8124269,24.43299613,-99999.0,'11111222,11111222,99999999' 
TABS,ioos:station:wmo:42049:1,2017-09-01T15:30:00Z,28.3507,-96.0058,2.0,146.5068616,22.57920503,-99999.0,'11111222,11111222,99999999' 
TABS,ioos:station:wmo:42049:1,2017-09-01T16:00:00Z,28.3507,-96.0058,2.0,152.8079095,22.8897619,-99999.0,'11111222,11111222,99999999' 
TABS,ioos:station:wmo:42049:1,2017-09-01T16:30:00Z,28.3507,-96.0058,2.0,157.2027117,25.11165865,-99999.0,'11111222,11111222,99999999' 
TABS,ioos:station:wmo:42049:1,2017-09-01T17:00:00Z,28.3507,-96.0058,2.0,168.2324891,24.3211369,-99999.0,'11111222,11111222,99999999' 
TABS,ioos:station:wmo:42049:1,2017-09-01T17:30:00Z,28.3507,-96.0058,2.0,173.1495621,27.41571265,-99999.0,'11111222,11111222,99999999' 
TABS,ioos:station:wmo:42049:1,2017-09-01T18:00:00Z,28.3507,-96.0058,2.0,178.7982064,32.42713062,-99999.0,'11111222,11111222,99999999' 
TABS,ioos:station:wmo:42049:1,2017-09-01T18:30:00Z,28.3507,-96.0058,2.0,183.3650002,27.08670707,-99999.0,'11111222,11111222,99999999' 
TABS,ioos:station:wmo:42049:1,2017-09-01T19:00:00Z,28.3507,-96.0058,2.0,188.7668304,27.09659204,-99999.0,'11111222,11111222,99999999' 
TABS,ioos:station:wmo:42049:1,2017-09-01T19:30:00Z,28.3507,-96.0058,2.0,195.1424842,22.35625192,-99999.0,'11111222,11111222,99999999' 
TABS,ioos:station:wmo:42049:1,2017-09-01T20:00:00Z,28.3507,-96.0058,2.0,209.3441511,23.42577213,-99999.0,'11111222,11111222,99999999' 
TABS,ioos:station:wmo:42049:1,2017-09-01T20:30:00Z,28.3507,-96.0058,2.0,208.72835,17.41349477,-99999.0,'11111222,11111222,99999999' 
TABS,ioos:station:wmo:42049:1,2017-09-01T21:00:00Z,28.3507,-96.0058,2.0,229.2772913,14.88363195,-99999.0,'11111222,11111222,99999999' 
TABS,ioos:station:wmo:42049:1,2017-09-01T21:30:00Z,28.3507,-96.0058,2.0,248.8681609,16.19931171,-99999.0,'11111222,11111222,99999999' 
TABS,ioos:station:wmo:42049:1,2017-09-01T22:00:00Z,28.3507,-96.0058,2.0,259.7656671,18.0674431,-99999.0,'11111222,11111222,99999999' 
TABS,ioos:station:wmo:42049:1,2017-09-01T22:30:00Z,28.3507,-96.0058,2.0,264.2007579,23.25902191,-99999.0,'11111222,11111222,99999999' 
TABS,ioos:station:wmo:42049:1,2017-09-01T23:00:00Z,28.3507,-96.0058,2.0,276.6471048,23.32678503,-99999.0,'11111222,11111222,99999999' 
TABS,ioos:station:wmo:42049:1,2017-09-01T23:30:00Z,28.3507,-96.0058,2.0,293.607349,30.76456566,-99999.0,'11111222,11111222,99999999' 
TABS,ioos:station:wmo:42049:1,2017-09-02T00:00:00Z,28.3507,-96.0058,2.0,292.0598033,30.51376738,-99999.0,'11111222,11111222,99999999' 
TABS,ioos:station:wmo:42049:1,2017-09-02T00:30:00Z,28.3507,-96.0058,2.0,285.8721749,35.28521078,-99999.0,'11111222,11111222,99999999' 
TABS,ioos:station:wmo:42049:1,2017-09-02T01:00:00Z,28.3507,-96.0058,2.0,293.5408747,33.22505831,-99999.0,'11111222,11111222,99999999' 
TABS,ioos:station:wmo:42049:1,2017-09-02T01:30:00Z,28.3507,-96.0058,2.0,302.9262401,46.58231853,-99999.0,'11111222,11111222,99999999' 
TABS,ioos:station:wmo:42049:1,2017-09-02T02:00:00Z,28.3507,-96.0058,2.0,303.8735983,37.30100535,-99999.0,'11111222,11111222,99999999' 
TABS,ioos:station:wmo:42049:1,2017-09-02T02:30:00Z,28.3507,-96.0058,2.0,311.2668327,46.15181145,-99999.0,'11111222,11111222,99999999' 
TABS,ioos:station:wmo:42049:1,2017-09-02T03:00:00Z,28.3507,-96.0058,2.0,319.4258448,50.95046222,-99999.0,'11111222,11111222,99999999' 
TABS,ioos:station:wmo:42049:1,2017-09-02T03:30:00Z,28.3507,-96.0058,2.0,325.9088309,51.86296752,-99999.0,'11111222,11111222,99999999' 
TABS,ioos:station:wmo:42049:1,2017-09-02T04:00:00Z,28.3507,-96.0058,2.0,331.2643764,49.94040649,-99999.0,'11111222,11111222,99999999' 
TABS,ioos:station:wmo:42049:1,2017-09-02T04:30:00Z,28.3507,-96.0058,2.0,338.7039965,41.49337899,-99999.0,'11111222,11111222,99999999' 
TABS,ioos:station:wmo:42049:1,2017-09-02T05:00:00Z,28.3507,-96.0058,2.0,346.2028845,41.30175057,-99999.0,'11111222,11111222,99999999' 
TABS,ioos:station:wmo:42049:1,2017-09-02T05:30:00Z,28.3507,-96.0058,2.0,346.5289467,37.38868412,-99999.0,'11111222,11111222,99999999' 
TABS,ioos:station:wmo:42049:1,2017-09-02T06:00:00Z,28.3507,-96.0058,2.0,354.2303389,31.73075795,-99999.0,'11111222,11111222,99999999' 
TABS,ioos:station:wmo:42049:1,2017-09-02T06:30:00Z,28.3507,-96.0058,2.0,3.311659447,27.52596047,-99999.0,'11111222,11111222,99999999' 
TABS,ioos:station:wmo:42049:1,2017-09-02T07:00:00Z,28.3507,-96.0058,2.0,4.62888038,25.03163798,-99999.0,'11111222,11111222,99999999' 
TABS,ioos:station:wmo:42049:1,2017-09-02T07:30:00Z,28.3507,-96.0058,2.0,10.46886458,24.71133546,-99999.0,'11111222,11111222,99999999' 
TABS,ioos:station:wmo:42049:1,2017-09-02T08:00:00Z,28.3507,-96.0058,2.0,15.94556907,23.80595934,-99999.0,'11111222,11111222,99999999' 
TABS,ioos:station:wmo:42049:1,2017-09-02T08:30:00Z,28.3507,-96.0058,2.0,20.54270324,19.86305364,-99999.0,'11111222,11111222,99999999' 
TABS,ioos:station:wmo:42049:1,2017-09-02T09:00:00Z,28.3507,-96.0058,2.0,31.30291812,19.70896243,-99999.0,'11111222,11111222,99999999' 
TABS,ioos:station:wmo:42049:1,2017-09-02T09:30:00Z,28.3507,-96.0058,2.0,46.06341522,15.62267903,-99999.0,'11111222,11111222,99999999' 
TABS,ioos:station:wmo:42049:1,2017-09-02T10:00:00Z,28.3507,-96.0058,2.0,48.13523166,13.57555524,-99999.0,'11111222,11111222,99999999' 
TABS,ioos:station:wmo:42049:1,2017-09-02T10:30:00Z,28.3507,-96.0058,2.0,60.13454486,14.13751039,-99999.0,'11111222,11111222,99999999' 
TABS,ioos:station:wmo:42049:1,2017-09-02T11:00:00Z,28.3507,-96.0058,2.0,81.37575033,13.93759305,-99999.0,'11111222,11111222,99999999' 
TABS,ioos:station:wmo:42049:1,2017-09-02T11:30:00Z,28.3507,-96.0058,2.0,98.88867785,11.00213161,-99999.0,'11111222,11111222,99999999' 
TABS,ioos:station:wmo:42049:1,2017-09-02T12:00:00Z,28.3507,-96.0058,2.0,119.6634388,15.72017812,-99999.0,'11111222,11111222,99999999' 
TABS,ioos:station:wmo:42049:1,2017-09-02T12:30:00Z,28.3507,-96.0058,2.0,126.9535864,17.78201901,-99999.0,'11111222,11111222,99999999' 
TABS,ioos:station:wmo:42049:1,2017-09-02T13:00:00Z,28.3507,-96.0058,2.0,131.9138264,19.17626137,-99999.0,'11111222,11111222,99999999' 
TABS,ioos:station:wmo:42049:1,2017-09-02T13:30:00Z,28.3507,-96.0058,2.0,136.9748242,22.36493014,-99999.0,'11111222,11111222,99999999' 
TABS,ioos:station:wmo:42049:1,2017-09-02T14:00:00Z,28.3507,-96.0058,2.0,146.3170543,21.90788443,-99999.0,'11111222,11111222,99999999' 
TABS,ioos:station:wmo:42049:1,2017-09-02T14:30:00Z,28.3507,-96.0058,2.0,152.4543903,24.04572311,-99999.0,'11111222,11111222,99999999' 
TABS,ioos:station:wmo:42049:1,2017-09-02T15:00:00Z,28.3507,-96.0058,2.0,158.1799947,23.08378868,-99999.0,'11111222,11111222,99999999' 
TABS,ioos:station:wmo:42049:1,2017-09-02T15:30:00Z,28.3507,-96.0058,2.0,162.5027915,23.18260123,-99999.0,'11111222,11111222,99999999' 
TABS,ioos:station:wmo:42049:1,2017-09-02T16:00:00Z,28.3507,-96.0058,2.0,180.9386363,27.46368693,-99999.0,'11111222,11111222,99999999' 
TABS,ioos:station:wmo:42049:1,2017-09-02T16:30:00Z,28.3507,-96.0058,2.0,188.4183026,34.83534986,-99999.0,'11111222,11111222,99999999' 
TABS,ioos:station:wmo:42049:1,2017-09-02T17:00:00Z,28.3507,-96.0058,2.0,184.7659544,37.54984421,-99999.0,'11111222,11111222,99999999' 
TABS,ioos:station:wmo:42049:1,2017-09-02T17:30:00Z,28.3507,-96.0058,2.0,188.4694705,41.75538887,-99999.0,'11111222,11111222,99999999' 
TABS,ioos:station:wmo:42049:1,2017-09-02T18:00:00Z,28.3507,-96.0058,2.0,193.8339175,41.94679726,-99999.0,'11111222,11111222,99999999' 
TABS,ioos:station:wmo:42049:1,2017-09-02T18:30:00Z,28.3507,-96.0058,2.0,198.7723357,41.85663388,-99999.0,'11111222,11111222,99999999' 
TABS,ioos:station:wmo:42049:1,2017-09-02T19:00:00Z,28.3507,-96.0058,2.0,201.7170135,36.67301188,-99999.0,'11111222,11111222,99999999' 
TABS,ioos:station:wmo:42049:1,2017-09-02T19:30:00Z,28.3507,-96.0058,2.0,205.2014642,49.99921699,-99999.0,'11111222,11111222,99999999' 
TABS,ioos:station:wmo:42049:1,2017-09-02T20:00:00Z,28.3507,-96.0058,2.0,218.8807919,46.50264616,-99999.0,'11111222,11111222,99999999' 
TABS,ioos:station:wmo:42049:1,2017-09-02T20:30:00Z,28.3507,-96.0058,2.0,225.0688193,46.88121372,-99999.0,'11111222,11111222,99999999' 
TABS,ioos:station:wmo:42049:1,2017-09-02T21:00:00Z,28.3507,-96.0058,2.0,224.2421359,37.43750526,-99999.0,'11111222,11111222,99999999' 
TABS,ioos:station:wmo:42049:1,2017-09-02T21:30:00Z,28.3507,-96.0058,2.0,234.5708124,42.2293559,-99999.0,'11111222,11111222,99999999' 
TABS,ioos:station:wmo:42049:1,2017-09-02T22:00:00Z,28.3507,-96.0058,2.0,233.8767308,34.82495944,-99999.0,'11111222,11111222,99999999' 
TABS,ioos:station:wmo:42049:1,2017-09-02T22:30:00Z,28.3507,-96.0058,2.0,235.1415598,32.24587571,-99999.0,'11111222,11111222,99999999' 
TABS,ioos:station:wmo:42049:1,2017-09-02T23:00:00Z,28.3507,-96.0058,2.0,249.9753019,42.75463133,-99999.0,'11111222,11111222,99999999' 
TABS,ioos:station:wmo:42049:1,2017-09-02T23:30:00Z,28.3507,-96.0058,2.0,256.133553,41.64355052,-99999.0,'11111222,11111222,99999999' 
TABS,ioos:station:wmo:42049:1,2017-09-03T00:00:00Z,28.3507,-96.0058,2.0,260.0444715,39.5657238,-99999.0,'11111222,11111222,99999999' 
TABS,ioos:station:wmo:42049:1,2017-09-03T00:30:00Z,28.3507,-96.0058,2.0,270.4195476,41.01109728,-99999.0,'11111222,11111222,99999999' 
TABS,ioos:station:wmo:42049:1,2017-09-03T01:00:00Z,28.3507,-96.0058,2.0,274.850685,40.09357305,-99999.0,'11111222,11111222,99999999' 
TABS,ioos:station:wmo:42049:1,2017-09-03T01:30:00Z,28.3507,-96.0058,2.0,281.9993056,41.7522215,-99999.0,'11111222,11111222,99999999' 
TABS,ioos:station:wmo:42049:1,2017-09-03T02:00:00Z,28.3507,-96.0058,2.0,288.001277,41.74326293,-99999.0,'11111222,11111222,99999999' 
TABS,ioos:station:wmo:42049:1,2017-09-03T02:30:00Z,28.3507,-96.0058,2.0,291.5393887,42.98149369,-99999.0,'11111222,11111222,99999999' 
TABS,ioos:station:wmo:42049:1,2017-09-03T03:00:00Z,28.3507,-96.0058,2.0,297.8697359,41.65084993,-99999.0,'11111222,11111222,99999999' 
TABS,ioos:station:wmo:42049:1,2017-09-03T03:30:00Z,28.3507,-96.0058,2.0,299.7506832,39.11559408,-99999.0,'11111222,11111222,99999999' 
TABS,ioos:station:wmo:42049:1,2017-09-03T04:00:00Z,28.3507,-96.0058,2.0,304.0017476,35.72876712,-99999.0,'11111222,11111222,99999999' 
TABS,ioos:station:wmo:42049:1,2017-09-03T04:30:00Z,28.3507,-96.0058,2.0,305.7117097,31.06034932,-99999.0,'11111222,11111222,99999999' 
TABS,ioos:station:wmo:42049:1,2017-09-03T05:00:00Z,28.3507,-96.0058,2.0,308.6035169,31.60646136,-99999.0,'11111222,11111222,99999999' 
TABS,ioos:station:wmo:42049:1,2017-09-03T05:30:00Z,28.3507,-96.0058,2.0,310.1093908,28.28118279,-99999.0,'11111222,11111222,99999999' 
TABS,ioos:station:wmo:42049:1,2017-09-03T06:00:00Z,28.3507,-96.0058,2.0,315.2918266,30.57569296,-99999.0,'11111222,11111222,99999999' 
TABS,ioos:station:wmo:42049:1,2017-09-03T06:30:00Z,28.3507,-96.0058,2.0,319.2928263,23.9958038,-99999.0,'11111222,11111222,99999999' 
TABS,ioos:station:wmo:42049:1,2017-09-03T07:00:00Z,28.3507,-96.0058,2.0,319.9308668,24.18770349,-99999.0,'11111222,11111222,99999999' 
TABS,ioos:station:wmo:42049:1,2017-09-03T07:30:00Z,28.3507,-96.0058,2.0,324.8199282,22.92796764,-99999.0,'11111222,11111222,99999999' 
TABS,ioos:station:wmo:42049:1,2017-09-03T08:00:00Z,28.3507,-96.0058,2.0,336.6728478,18.68757876,-99999.0,'11111222,11111222,99999999' 
TABS,ioos:station:wmo:42049:1,2017-09-03T08:30:00Z,28.3507,-96.0058,2.0,341.0845426,17.33621643,-99999.0,'11111222,11111222,99999999' 
TABS,ioos:station:wmo:42049:1,2017-09-03T09:00:00Z,28.3507,-96.0058,2.0,343.4620088,12.61174849,-99999.0,'11111222,11111222,99999999' 
TABS,ioos:station:wmo:42049:1,2017-09-03T09:30:00Z,28.3507,-96.0058,2.0,354.6268253,10.14457983,-99999.0,'11111222,11111222,99999999' 
TABS,ioos:station:wmo:42049:1,2017-09-03T10:00:00Z,28.3507,-96.0058,2.0,358.4948622,7.232496111,-99999.0,'11133222,11111222,99999999' 
TABS,ioos:station:wmo:42049:1,2017-09-03T10:30:00Z,28.3507,-96.0058,2.0,22.58582637,5.155385534,-99999.0,'11133222,11111222,99999999' 
TABS,ioos:station:wmo:42049:1,2017-09-03T11:00:00Z,28.3507,-96.0058,2.0,68.60023991,0.794795571,-99999.0,'11133222,11111222,99999999' 
TABS,ioos:station:wmo:42049:1,2017-09-03T11:30:00Z,28.3507,-96.0058,2.0,63.43501094,2.124264579,-99999.0,'11133222,11111222,99999999' 
TABS,ioos:station:wmo:42049:1,2017-09-03T12:00:00Z,28.3507,-96.0058,2.0,118.8963487,3.518010802,-99999.0,'11133222,11111222,99999999' 
TABS,ioos:station:wmo:42049:1,2017-09-03T12:30:00Z,28.3507,-96.0058,2.0,132.8196414,5.57603802,-99999.0,'11133222,11111222,99999999' 
TABS,ioos:station:wmo:42049:1,2017-09-03T13:00:00Z,28.3507,-96.0058,2.0,154.8058185,8.597906722,-99999.0,'11133222,11111222,99999999' 
TABS,ioos:station:wmo:42049:1,2017-09-03T13:30:00Z,28.3507,-96.0058,2.0,159.7676565,11.59545169,-99999.0,'11111222,11111222,99999999' 
TABS,ioos:station:wmo:42049:1,2017-09-03T14:00:00Z,28.3507,-96.0058,2.0,172.7613687,11.90487715,-99999.0,'11111222,11111222,99999999' 
TABS,ioos:station:wmo:42049:1,2017-09-03T14:30:00Z,28.3507,-96.0058,2.0,170.5164223,13.41331428,-99999.0,'11111222,11111222,99999999' 
TABS,ioos:station:wmo:42049:1,2017-09-03T15:00:00Z,28.3507,-96.0058,2.0,179.8683777,17.44004587,-99999.0,'11111222,11111222,99999999' 
TABS,ioos:station:wmo:42049:1,2017-09-03T15:30:00Z,28.3507,-96.0058,2.0,181.0281476,17.27278206,-99999.0,'11111222,11111222,99999999' 
TABS,ioos:station:wmo:42049:1,2017-09-03T16:00:00Z,28.3507,-96.0058,2.0,183.3318392,18.58141276,-99999.0,'11111222,11111222,99999999' 
TABS,ioos:station:wmo:42049:1,2017-09-03T16:30:00Z,28.3507,-96.0058,2.0,185.3975257,20.4105071,-99999.0,'11111222,11111222,99999999' 
TABS,ioos:station:wmo:42049:1,2017-09-03T17:00:00Z,28.3507,-96.0058,2.0,189.3115595,15.01789932,-99999.0,'11111222,11111222,99999999' 
TABS,ioos:station:wmo:42049:1,2017-09-03T17:30:00Z,28.3507,-96.0058,2.0,191.986118,16.61219432,-99999.0,'11111222,11111222,99999999' 
TABS,ioos:station:wmo:42049:1,2017-09-03T18:00:00Z,28.3507,-96.0058,2.0,203.9828356,19.75559161,-99999.0,'11111222,11111222,99999999' 
TABS,ioos:station:wmo:42049:1,2017-09-03T18:30:00Z,28.3507,-96.0058,2.0,223.8113185,19.77495891,-99999.0,'11111222,11111222,99999999' 
TABS,ioos:station:wmo:42049:1,2017-09-03T19:00:00Z,28.3507,-96.0058,2.0,232.7130424,22.54859641,-99999.0,'11111222,11111222,99999999' 
TABS,ioos:station:wmo:42049:1,2017-09-03T19:30:00Z,28.3507,-96.0058,2.0,240.7131683,24.96030849,-99999.0,'11111222,11111222,99999999' 
TABS,ioos:station:wmo:42049:1,2017-09-03T20:00:00Z,28.3507,-96.0058,2.0,240.5530741,28.11161326,-99999.0,'11111222,11111222,99999999' 
TABS,ioos:station:wmo:42049:1,2017-09-03T20:30:00Z,28.3507,-96.0058,2.0,241.1662902,28.92607993,-99999.0,'11111222,11111222,99999999' 
TABS,ioos:station:wmo:42049:1,2017-09-03T21:00:00Z,28.3507,-96.0058,2.0,238.3210829,30.10548953,-99999.0,'11111222,11111222,99999999' 
TABS,ioos:station:wmo:42049:1,2017-09-03T21:30:00Z,28.3507,-96.0058,2.0,238.0268905,31.65154183,-99999.0,'11111222,11111222,99999999' 
TABS,ioos:station:wmo:42049:1,2017-09-03T22:00:00Z,28.3507,-96.0058,2.0,233.7063405,31.20357992,-99999.0,'11111222,11111222,99999999' 
TABS,ioos:station:wmo:42049:1,2017-09-03T22:30:00Z,28.3507,-96.0058,2.0,227.4270249,30.55321423,-99999.0,'11111222,11111222,99999999' 
TABS,ioos:station:wmo:42049:1,2017-09-03T23:00:00Z,28.3507,-96.0058,2.0,233.5366397,35.48689476,-99999.0,'11111222,11111222,99999999' 
TABS,ioos:station:wmo:42049:1,2017-09-03T23:30:00Z,28.3507,-96.0058,2.0,232.7985134,28.71247987,-99999.0,'11111222,11111222,99999999' 
TABS,ioos:station:wmo:42049:1,2017-09-04T00:00:00Z,28.3507,-96.0058,2.0,235.3682318,32.41273361,-99999.0,'11111222,11111222,99999999' 
TABS,ioos:station:wmo:42049:1,2017-09-04T00:30:00Z,28.3507,-96.0058,2.0,239.2544259,34.17305664,-99999.0,'11111222,11111222,99999999' 
TABS,ioos:station:wmo:42049:1,2017-09-04T01:00:00Z,28.3507,-96.0058,2.0,249.4298836,44.05897071,-99999.0,'11111222,11111222,99999999' 
TABS,ioos:station:wmo:42049:1,2017-09-04T01:30:00Z,28.3507,-96.0058,2.0,254.1303832,44.43343448,-99999.0,'11111222,11111222,99999999' 
TABS,ioos:station:wmo:42049:1,2017-09-04T02:00:00Z,28.3507,-96.0058,2.0,257.7050847,48.27719234,-99999.0,'11111222,11111222,99999999' 
TABS,ioos:station:wmo:42049:1,2017-09-04T02:30:00Z,28.3507,-96.0058,2.0,258.7787182,45.42839641,-99999.0,'11111222,11111222,99999999' 
TABS,ioos:station:wmo:42049:1,2017-09-04T03:00:00Z,28.3507,-96.0058,2.0,259.3662759,46.33566769,-99999.0,'11111222,11111222,99999999' 
TABS,ioos:station:wmo:42049:1,2017-09-04T03:30:00Z,28.3507,-96.0058,2.0,265.3343566,43.03257022,-99999.0,'11111222,11111222,99999999' 
TABS,ioos:station:wmo:42049:1,2017-09-04T04:00:00Z,28.3507,-96.0058,2.0,268.2886784,39.18746994,-99999.0,'11111222,11111222,99999999' 
TABS,ioos:station:wmo:42049:1,2017-09-04T04:30:00Z,28.3507,-96.0058,2.0,272.3692958,37.74225351,-99999.0,'11111222,11111222,99999999' 
TABS,ioos:station:wmo:42049:1,2017-09-04T05:00:00Z,28.3507,-96.0058,2.0,277.2915633,32.9363219,-99999.0,'11111222,11111222,99999999' 
TABS,ioos:station:wmo:42049:1,2017-09-04T05:30:00Z,28.3507,-96.0058,2.0,279.4880702,29.72662779,-99999.0,'11111222,11111222,99999999' 
TABS,ioos:station:wmo:42049:1,2017-09-04T06:00:00Z,28.3507,-96.0058,2.0,279.3639764,23.84775251,-99999.0,'11111222,11111222,99999999' 
TABS,ioos:station:wmo:42049:1,2017-09-04T06:30:00Z,28.3507,-96.0058,2.0,286.0121991,22.51341156,-99999.0,'11111222,11111222,99999999' 
TABS,ioos:station:wmo:42049:1,2017-09-04T07:00:00Z,28.3507,-96.0058,2.0,292.5920992,17.23230977,-99999.0,'11111222,11111222,99999999' 
TABS,ioos:station:wmo:42049:1,2017-09-04T07:30:00Z,28.3507,-96.0058,2.0,283.9076487,20.47005862,-99999.0,'11111222,11111222,99999999' 
TABS,ioos:station:wmo:42049:1,2017-09-04T08:00:00Z,28.3507,-96.0058,2.0,279.6776835,17.96564778,-99999.0,'11111222,11111222,99999999' 
TABS,ioos:station:wmo:42049:1,2017-09-04T08:30:00Z,28.3507,-96.0058,2.0,274.9756688,17.98777363,-99999.0,'11111222,11111222,99999999' 
TABS,ioos:station:wmo:42049:1,2017-09-04T09:00:00Z,28.3507,-96.0058,2.0,265.5202848,16.90162418,-99999.0,'11111222,11111222,99999999' 
TABS,ioos:station:wmo:42049:1,2017-09-04T09:30:00Z,28.3507,-96.0058,2.0,256.3283039,14.08918025,-99999.0,'11111222,11111222,99999999' 
TABS,ioos:station:wmo:42049:1,2017-09-04T10:00:00Z,28.3507,-96.0058,2.0,249.750129,13.78179234,-99999.0,'11111222,11111222,99999999' 
TABS,ioos:station:wmo:42049:1,2017-09-04T10:30:00Z,28.3507,-96.0058,2.0,246.8128442,12.7498549,-99999.0,'11111222,11111222,99999999' 
TABS,ioos:station:wmo:42049:1,2017-09-04T11:00:00Z,28.3507,-96.0058,2.0,231.7158193,14.99456568,-99999.0,'11111222,11111222,99999999' 
TABS,ioos:station:wmo:42049:1,2017-09-04T11:30:00Z,28.3507,-96.0058,2.0,236.3095903,12.00648575,-99999.0,'11111222,11111222,99999999' 
TABS,ioos:station:wmo:42049:1,2017-09-04T12:00:00Z,28.3507,-96.0058,2.0,219.504534,13.66044289,-99999.0,'11111222,11111222,99999999' 
TABS,ioos:station:wmo:42049:1,2017-09-04T12:30:00Z,28.3507,-96.0058,2.0,211.8882584,19.23264152,-99999.0,'11111222,11111222,99999999' 
TABS,ioos:station:wmo:42049:1,2017-09-04T13:00:00Z,28.3507,-96.0058,2.0,206.258715,20.92989489,-99999.0,'11111222,11111222,99999999' 
TABS,ioos:station:wmo:42049:1,2017-09-04T13:30:00Z,28.3507,-96.0058,2.0,204.8756707,23.8200021,-99999.0,'11111222,11111222,99999999' 
TABS,ioos:station:wmo:42049:1,2017-09-04T14:00:00Z,28.3507,-96.0058,2.0,202.7444167,24.3646732,-99999.0,'11111222,11111222,99999999' 
TABS,ioos:station:wmo:42049:1,2017-09-04T14:30:00Z,28.3507,-96.0058,2.0,206.1923887,24.08296078,-99999.0,'11111222,11111222,99999999' 
TABS,ioos:station:wmo:42049:1,2017-09-04T15:00:00Z,28.3507,-96.0058,2.0,207.1071216,25.04061101,-99999.0,'11111222,11111222,99999999' 
TABS,ioos:station:wmo:42049:1,2017-09-04T15:30:00Z,28.3507,-96.0058,2.0,208.1578029,26.38238238,-99999.0,'11111222,11111222,99999999' 